Location: Unspecified
(41.9031°N, 12.4386°E)
Time: 02:42:35
(UTC+02:00)

ISS - Pass Details

Date: 06 July 2020
Orbit: 417 x 421 km, 51.6° (Epoch: 08 July)

Event Time Altitude Azimuth Distance (km) Brightness Sun altitude
Rises 04:58:14 0° 295° (WNW) 2,361 -0.2 -7.4°
Reaches altitude 10° 05:00:59 10° 319° (NW) 1,498 -1.0 -7.0°
Maximum altitude 05:03:05 15° 358° (N) 1,209 -0.9 -6.7°
Drops below altitude 10° 05:05:12 10° 37° (NE) 1,498 0.6 -6.4°
Sets 05:07:56 0° 61° (ENE) 2,362 2.3 -6.0°
